This is the latest recevied weather packets stored in our database for station/object DC1MPP-9. If no packets are shown the sender has not sent any weather packets the latest 10 day(s).
| Time | Temp. | Humidity | Pressure | Rain* | Wind** | Luminosity | Snow |
|---|---|---|---|---|---|---|---|
| 1777627857 | 17.22° C | 29% | 969 hPa | - | - | - | - |
| 1777627616 | 16.67° C | 31% | 969 hPa | - | - | - | - |
| 1777627375 | 16.11° C | 30% | 969 hPa | - | - | - | - |
| 1777627134 | 16.11° C | 30% | 969 hPa | - | - | - | - |
| 1777626893 | 16.67° C | 36% | 969 hPa | - | - | - | - |
| 1777626651 | 16.11° C | 30% | 969 hPa | - | - | - | - |
| 1777626410 | 15.56° C | 32% | 969 hPa | - | - | - | - |
| 1777626169 | 16.11° C | 29% | 969 hPa | - | - | - | - |
| 1777625928 | 16.11° C | 31% | 969 hPa | - | - | - | - |
| 1777625687 | 16.11° C | 32% | 969 hPa | - | - | - | - |
| 1777625446 | 15.56° C | 30% | 969 hPa | - | - | - | - |
| 1777625205 | 15.56° C | 30% | 969 hPa | - | - | - | - |
| 1777624964 | 15.56° C | 30% | 969 hPa | - | - | - | - |
| 1777624723 | 15° C | 31% | 969 hPa | - | - | - | - |
| 1777624241 | 15° C | 32% | 969 hPa | - | - | - | - |
| 1777624000 | 14.44° C | 31% | 969 hPa | - | - | - | - |
| 1777623759 | 15° C | 33% | 969 hPa | - | - | - | - |
| 1777623518 | 15° C | 35% | 969 hPa | - | - | - | - |
| 1777623277 | 14.44° C | 34% | 969 hPa | - | - | - | - |
| 1777623036 | 14.44° C | 33% | 969 hPa | - | - | - | - |
| 1777622795 | 13.89° C | 33% | 969 hPa | - | - | - | - |
| 1777622554 | 13.89° C | 32% | 969 hPa | - | - | - | - |
| 1777622313 | 13.33° C | 32% | 969 hPa | - | - | - | - |
| 1777622072 | 13.33° C | 35% | 969 hPa | - | - | - | - |
| 1777621831 | 13.33° C | 34% | 969 hPa | - | - | - | - |
* Rain since midnight (hover to see other rain measurements)
** Current wind speed in m/s (hover to see current wind gust speed)